Location: Unspecified
(0.0000°N, 0.0000°E)
Time: 11:03:18
(UTC+00:00)

Courier 1B - Pass Details

Date: 22 November 2019
Orbit: 963 x 1209 km, 28.3° (Epoch: 14 December)

Event Time Altitude Azimuth Distance (km) Brightness Sun altitude
Rises 22:37:44 0° 225° (SW) 4,088 11.1 -63.7°
Enters shadow 22:38:15 - 224° (SW) 3,927 11.0 -63.8°
Reaches altitude 10° 22:40:51 10° 216° (SW) 3,137 - -64.2°
Maximum altitude 22:47:56 36° 152° (SSE) 1,798 - -65.3°
Drops below altitude 10° 22:54:57 10° 87° (E) 3,109 - -66.2°
Sets 22:58:00 0° 79° (E) 4,047 - -66.6°
